Sunflower Gold — JD2460 — position and weather

sailwx.info

Track history (hours):
 
Tides and Currents Weather Stations Pressure Air Temp Water Temp Dewpoint Dewpoint Depression Visibility Wind Speed Wind Dir Waves Ship Positions

Sunflower Gold

Last reported at 2014-Jul-25 18:23 UTC. Time now 2014-Jul-26 07:08 UTC.
Position N 34°02' E 132°46'.

Length 166 m; draft 5.8 m.

Type: Passenger vessel. MMSI: 431000331.

Date/timePositionNaut miles runAvg speedWind from/ knotsBaromVisibWave heightAir tempDewpointWater temp
2014-Jul-25 18:23N 34°02' E 132°46'10717.7
2014-Jul-25 12:20N 34°34' E 134°50'1519.8
2014-Jul-25 11:33N 34°36' E 135°08'9 9.2
2014-Jul-25 10:33N 34°42' E 135°17'0 0.0
2014-Jul-25 09:33N 34°42' E 135°17'0 0.0
2014-Jul-25 08:33N 34°42' E 135°17'0 0.0
2014-Jul-25 07:27N 34°42' E 135°17'0 0.0
2014-Jul-25 06:33N 34°42' E 135°17'0 0.0
2014-Jul-25 05:33N 34°42' E 135°17'0 0.0
2014-Jul-25 04:33N 34°42' E 135°17'0 0.0
2014-Jul-25 03:27N 34°42' E 135°17'0 0.0
2014-Jul-25 02:33N 34°42' E 135°17'0 0.0
2014-Jul-25 01:33N 34°42' E 135°17'0 0.0
2014-Jul-25 00:33N 34°42' E 135°17'0 0.0
2014-Jul-24 23:33N 34°42' E 135°17'0 0.0
2014-Jul-24 22:33N 34°42' E 135°17'0 0.0
2014-Jul-24 21:33N 34°42' E 135°17'1111.5
2014-Jul-24 20:33N 34°35' E 135°06'1818.1
2014-Jul-24 19:33N 34°31' E 134°44'11218.2
2014-Jul-24 13:24N 33°53' E 132°37'1921.4
2014-Jul-24 12:32N 33°41' E 132°19'29 1.5
2014-Jul-23 17:30N 34°01' E 132°45'10917.9
2014-Jul-23 11:25N 34°34' E 134°51'1820.9
2014-Jul-23 10:33N 34°36' E 135°13'7 6.0
2014-Jul-23 09:28N 34°42' E 135°17'0 0.0
2014-Jul-23 08:28N 34°42' E 135°17'0 0.0
2014-Jul-23 07:28N 34°42' E 135°17'0 0.0
2014-Jul-23 06:28N 34°42' E 135°17'0 0.0
2014-Jul-23 05:28N 34°42' E 135°17'0 0.0
2014-Jul-23 04:28N 34°42' E 135°17'0 0.0
2014-Jul-23 03:22N 34°42' E 135°17'0 0.0
2014-Jul-23 02:28N 34°42' E 135°17'0 0.0
2014-Jul-23 01:28N 34°42' E 135°17'0 0.0
2014-Jul-23 00:28N 34°42' E 135°17'0 0.0
2014-Jul-22 23:28N 34°42' E 135°17'0 0.0
2014-Jul-22 22:28N 34°42' E 135°17'0 0.0
2014-Jul-22 21:33N 34°42' E 135°17'1313.0
2014-Jul-22 20:33N 34°36' E 135°03'13017.8
2014-Jul-22 13:15N 33°51' E 132°35'121 4.7
2014-Jul-21 11:22N 34°35' E 134°52'1620.4
2014-Jul-21 10:33N 34°36' E 135°12'7 6.6
2014-Jul-21 09:31N 34°42' E 135°17'0 0.0
2014-Jul-21 08:25N 34°42' E 135°17'0 0.0
2014-Jul-21 07:31N 34°42' E 135°17'0 0.0
2014-Jul-21 06:31N 34°42' E 135°17'0 0.0
2014-Jul-21 05:31N 34°42' E 135°17'0 0.0
2014-Jul-21 04:31N 34°42' E 135°17'0 0.0
2014-Jul-21 03:31N 34°42' E 135°17'0 0.0
2014-Jul-21 02:25N 34°42' E 135°17'0 0.0
2014-Jul-21 01:31N 34°42' E 135°17'0 0.0
2014-Jul-21 00:25N 34°42' E 135°17'0 0.0
2014-Jul-20 23:31N 34°42' E 135°17'0 0.0
2014-Jul-20 22:31N 34°42' E 135°17'0 0.0
2014-Jul-20 21:34N 34°42' E 135°17'1111.3
2014-Jul-20 20:33N 34°35' E 135°06'12 0.4
2014-Jul-19 12:16N 34°35' E 134°52'1317.9
2014-Jul-19 11:33N 34°36' E 135°07'10 9.4
2014-Jul-19 10:29N 34°42' E 135°17'0 0.0
2014-Jul-19 09:23N 34°42' E 135°17'0 0.0
2014-Jul-19 08:17N 34°42' E 135°17'0 0.0
2014-Jul-19 07:29N 34°42' E 135°17'0 0.0
2014-Jul-19 06:29N 34°42' E 135°17'0 0.0
2014-Jul-19 05:29N 34°42' E 135°17'0 0.0
2014-Jul-19 04:29N 34°42' E 135°17'0 0.0
2014-Jul-19 03:29N 34°42' E 135°17'0 0.0
2014-Jul-19 02:29N 34°42' E 135°17'0 0.0
2014-Jul-19 01:29N 34°42' E 135°17'0 0.0
2014-Jul-19 00:23N 34°42' E 135°17'0 0.0
2014-Jul-18 23:29N 34°42' E 135°17'2 2.4
2014-Jul-18 22:33N 34°40' E 135°19'1514.5
2014-Jul-18 21:33N 34°36' E 135°02'10 0.3
2014-Jul-17 11:27N 34°34' E 134°50'1819.7
2014-Jul-17 10:33N 34°36' E 135°12'7 6.6
2014-Jul-17 09:28N 34°42' E 135°17'0 0.0
2014-Jul-17 08:28N 34°42' E 135°17'0 0.0
2014-Jul-17 07:28N 34°42' E 135°17'0 0.0
2014-Jul-17 06:28N 34°42' E 135°17'0 0.0
2014-Jul-17 05:28N 34°42' E 135°17'0 0.0
2014-Jul-17 04:28N 34°42' E 135°17'0 0.0
2014-Jul-17 03:28N 34°42' E 135°17'0 0.0
2014-Jul-17 02:28N 34°42' E 135°17'0 0.0
2014-Jul-17 01:28N 34°42' E 135°17'0 0.0
2014-Jul-17 00:28N 34°42' E 135°17'0 0.0
2014-Jul-16 23:28N 34°42' E 135°17'0 0.0
2014-Jul-16 22:28N 34°42' E 135°17'0 0.0
2014-Jul-16 21:33N 34°42' E 135°17'1211.5
2014-Jul-16 20:32N 34°35' E 135°06'2219.3
2014-Jul-16 19:23N 34°29' E 134°40'  
Track history (hours):
 
Tides and Currents Weather Stations Pressure Air Temp Water Temp Dewpoint Dewpoint Depression Visibility Wind Speed Wind Dir Waves Ship Positions

Sunflower Gold

Last reported at 2014-Jul-25 18:23 UTC. Time now 2014-Jul-26 07:08 UTC.
Position N 34°02' E 132°46'.

Length 166 m; draft 5.8 m.

Type: Passenger vessel. MMSI: 431000331.

Date/timePositionNaut miles runAvg speedWind from/ knotsBaromVisibWave heightAir tempDewpointWater temp
2014-Jul-25 18:23N 34°02' E 132°46'10717.7
2014-Jul-25 12:20N 34°34' E 134°50'1519.8
2014-Jul-25 11:33N 34°36' E 135°08'9 9.2
2014-Jul-25 10:33N 34°42' E 135°17'0 0.0
2014-Jul-25 09:33N 34°42' E 135°17'0 0.0
2014-Jul-25 08:33N 34°42' E 135°17'0 0.0
2014-Jul-25 07:27N 34°42' E 135°17'0 0.0
2014-Jul-25 06:33N 34°42' E 135°17'0 0.0
2014-Jul-25 05:33N 34°42' E 135°17'0 0.0
2014-Jul-25 04:33N 34°42' E 135°17'0 0.0
2014-Jul-25 03:27N 34°42' E 135°17'0 0.0
2014-Jul-25 02:33N 34°42' E 135°17'0 0.0
2014-Jul-25 01:33N 34°42' E 135°17'0 0.0
2014-Jul-25 00:33N 34°42' E 135°17'0 0.0
2014-Jul-24 23:33N 34°42' E 135°17'0 0.0
2014-Jul-24 22:33N 34°42' E 135°17'0 0.0
2014-Jul-24 21:33N 34°42' E 135°17'1111.5
2014-Jul-24 20:33N 34°35' E 135°06'1818.1
2014-Jul-24 19:33N 34°31' E 134°44'11218.2
2014-Jul-24 13:24N 33°53' E 132°37'1921.4
2014-Jul-24 12:32N 33°41' E 132°19'29 1.5
2014-Jul-23 17:30N 34°01' E 132°45'10917.9
2014-Jul-23 11:25N 34°34' E 134°51'1820.9
2014-Jul-23 10:33N 34°36' E 135°13'7 6.0
2014-Jul-23 09:28N 34°42' E 135°17'0 0.0
2014-Jul-23 08:28N 34°42' E 135°17'0 0.0
2014-Jul-23 07:28N 34°42' E 135°17'0 0.0
2014-Jul-23 06:28N 34°42' E 135°17'0 0.0
2014-Jul-23 05:28N 34°42' E 135°17'0 0.0
2014-Jul-23 04:28N 34°42' E 135°17'0 0.0
2014-Jul-23 03:22N 34°42' E 135°17'0 0.0
2014-Jul-23 02:28N 34°42' E 135°17'0 0.0
2014-Jul-23 01:28N 34°42' E 135°17'0 0.0
2014-Jul-23 00:28N 34°42' E 135°17'0 0.0
2014-Jul-22 23:28N 34°42' E 135°17'0 0.0
2014-Jul-22 22:28N 34°42' E 135°17'0 0.0
2014-Jul-22 21:33N 34°42' E 135°17'1313.0
2014-Jul-22 20:33N 34°36' E 135°03'13017.8
2014-Jul-22 13:15N 33°51' E 132°35'121 4.7
2014-Jul-21 11:22N 34°35' E 134°52'1620.4
2014-Jul-21 10:33N 34°36' E 135°12'7 6.6
2014-Jul-21 09:31N 34°42' E 135°17'0 0.0
2014-Jul-21 08:25N 34°42' E 135°17'0 0.0
2014-Jul-21 07:31N 34°42' E 135°17'0 0.0
2014-Jul-21 06:31N 34°42' E 135°17'0 0.0
2014-Jul-21 05:31N 34°42' E 135°17'0 0.0
2014-Jul-21 04:31N 34°42' E 135°17'0 0.0
2014-Jul-21 03:31N 34°42' E 135°17'0 0.0
2014-Jul-21 02:25N 34°42' E 135°17'0 0.0
2014-Jul-21 01:31N 34°42' E 135°17'0 0.0
2014-Jul-21 00:25N 34°42' E 135°17'0 0.0
2014-Jul-20 23:31N 34°42' E 135°17'0 0.0
2014-Jul-20 22:31N 34°42' E 135°17'0 0.0
2014-Jul-20 21:34N 34°42' E 135°17'1111.3
2014-Jul-20 20:33N 34°35' E 135°06'12 0.4
2014-Jul-19 12:16N 34°35' E 134°52'1317.9
2014-Jul-19 11:33N 34°36' E 135°07'10 9.4
2014-Jul-19 10:29N 34°42' E 135°17'0 0.0
2014-Jul-19 09:23N 34°42' E 135°17'0 0.0
2014-Jul-19 08:17N 34°42' E 135°17'0 0.0
2014-Jul-19 07:29N 34°42' E 135°17'0 0.0
2014-Jul-19 06:29N 34°42' E 135°17'0 0.0
2014-Jul-19 05:29N 34°42' E 135°17'0 0.0
2014-Jul-19 04:29N 34°42' E 135°17'0 0.0
2014-Jul-19 03:29N 34°42' E 135°17'0 0.0
2014-Jul-19 02:29N 34°42' E 135°17'0 0.0
2014-Jul-19 01:29N 34°42' E 135°17'0 0.0
2014-Jul-19 00:23N 34°42' E 135°17'0 0.0
2014-Jul-18 23:29N 34°42' E 135°17'2 2.4
2014-Jul-18 22:33N 34°40' E 135°19'1514.5
2014-Jul-18 21:33N 34°36' E 135°02'10 0.3
2014-Jul-17 11:27N 34°34' E 134°50'1819.7
2014-Jul-17 10:33N 34°36' E 135°12'7 6.6
2014-Jul-17 09:28N 34°42' E 135°17'0 0.0
2014-Jul-17 08:28N 34°42' E 135°17'0 0.0
2014-Jul-17 07:28N 34°42' E 135°17'0 0.0
2014-Jul-17 06:28N 34°42' E 135°17'0 0.0
2014-Jul-17 05:28N 34°42' E 135°17'0 0.0
2014-Jul-17 04:28N 34°42' E 135°17'0 0.0
2014-Jul-17 03:28N 34°42' E 135°17'0 0.0
2014-Jul-17 02:28N 34°42' E 135°17'0 0.0
2014-Jul-17 01:28N 34°42' E 135°17'0 0.0
2014-Jul-17 00:28N 34°42' E 135°17'0 0.0
2014-Jul-16 23:28N 34°42' E 135°17'0 0.0
2014-Jul-16 22:28N 34°42' E 135°17'0 0.0
2014-Jul-16 21:33N 34°42' E 135°17'1211.5
2014-Jul-16 20:32N 34°35' E 135°06'2219.3
2014-Jul-16 19:23N 34°29' E 134°40'  

Dump ship's entire track history